| time (UTC) | temp C | wind direction | speed KPH | gust KPH | rain 1hr cm | rain 24hr cm | rain mn cm | humidity % | barometer mb |
| 20260510061101 | 17 | 296 | 1.6 | 4.8 | 0.00 | 0.00 | 0.00 | 63 | 1009.8 |
| 20260510060601 | 17 | 229 | 0.0 | 4.8 | 0.00 | 0.00 | 0.00 | 63 | 1009.8 |
| 20260510060058 | 17 | 0 | 0.0 | 4.8 | 0.00 | 0.00 | 0.00 | 62 | 1009.9 |
| 20260510055600 | 17 | 288 | 1.6 | 4.8 | 0.00 | 0.00 | 0.00 | 63 | 1009.9 |
| 20260510055100 | 16 | 294 | 1.6 | 4.8 | 0.00 | 0.00 | 0.00 | 64 | 1009.9 |
| 20260510054559 | 16 | 269 | 1.6 | 4.8 | 0.00 | 0.00 | 0.00 | 66 | 1009.9 |
| 20260510054059 | 15 | 269 | 1.6 | 4.8 | 0.00 | 0.00 | 0.00 | 68 | 1009.9 |
| 20260510053559 | 15 | 275 | 1.6 | 4.8 | 0.00 | 0.00 | 0.00 | 69 | 1009.8 |
| 20260510053119 | 15 | 269 | 1.6 | 4.8 | 0.00 | 0.00 | 0.00 | 71 | 1009.9 |
| 20260510052600 | 15 | 275 | 1.6 | 4.8 | 0.00 | 0.00 | 0.00 | 72 | 1010.0 |
| 20260510052104 | 15 | 276 | 1.6 | 4.8 | 0.00 | 0.00 | 0.00 | 72 | 1010.0 |
| 20260510051605 | 15 | 265 | 1.6 | 4.8 | 0.00 | 0.00 | 0.00 | 73 | 1010.1 |
| 20260510051101 | 15 | 268 | 1.6 | 4.8 | 0.00 | 0.00 | 0.00 | 72 | 1010.0 |
| 20260510050602 | 15 | 284 | 1.6 | 4.8 | 0.00 | 0.00 | 0.00 | 72 | 1010.1 |
| 20260510050112 | 15 | 203 | 1.6 | 4.8 | 0.00 | 0.00 | 0.00 | 71 | 1010.1 |
| 20260510045600 | 15 | 246 | 1.6 | 4.8 | 0.00 | 0.00 | 0.00 | 70 | 1010.0 |
| 20260510045100 | 15 | 249 | 1.6 | 4.8 | 0.00 | 0.00 | 0.00 | 69 | 1010.1 |
| 20260510044617 | 15 | 249 | 1.6 | 4.8 | 0.00 | 0.00 | 0.00 | 69 | 1009.9 |
| 20260510044102 | 15 | 249 | 1.6 | 4.8 | 0.00 | 0.00 | 0.00 | 69 | 1009.9 |
| 20260510043600 | 15 | 249 | 1.6 | 4.8 | 0.00 | 0.00 | 0.00 | 69 | 1009.9 |
| 20260510043101 | 15 | 249 | 1.6 | 4.8 | 0.00 | 0.00 | 0.00 | 69 | 1010.0 |
| 20260510042600 | 15 | 230 | 1.6 | 4.8 | 0.00 | 0.00 | 0.00 | 69 | 1010.1 |
| 20260510042104 | 15 | 240 | 1.6 | 8.0 | 0.00 | 0.00 | 0.00 | 69 | 1010.0 |
| 20260510041605 | 15 | 254 | 3.2 | 8.0 | 0.00 | 0.00 | 0.00 | 69 | 1009.9 |
| 20260510041100 | 15 | 235 | 1.6 | 6.4 | 0.00 | 0.00 | 0.00 | 69 | 1009.9 |
| 20260510040600 | 15 | 230 | 1.6 | 6.4 | 0.00 | 0.00 | 0.00 | 67 | 1009.9 |
| 20260510035600 | 16 | 257 | 1.6 | 4.8 | 0.00 | 0.00 | 0.00 | 65 | 1009.9 |
| 20260510035100 | 17 | 279 | 1.6 | 4.8 | 0.00 | 0.00 | 0.00 | 62 | 1009.8 |
| 20260510034600 | 17 | 288 | 0.0 | 3.2 | 0.00 | 0.00 | 0.00 | 62 | 1009.8 |
| 20260510034102 | 17 | 288 | 0.0 | 3.2 | 0.00 | 0.00 | 0.00 | 63 | 1009.8 |
| 20260510033602 | 17 | 0 | 1.6 | 3.2 | 0.00 | 0.00 | 0.00 | 63 | 1009.7 |
| 20260510033112 | 17 | 0 | 0.0 | 3.2 | 0.00 | 0.00 | 0.00 | 63 | 1009.7 |
| 20260510032604 | 17 | 0 | 0.0 | 3.2 | 0.00 | 0.00 | 0.00 | 63 | 1009.7 |
| 20260510032057 | 17 | 288 | 0.0 | 3.2 | 0.00 | 0.00 | 0.00 | 63 | 1009.7 |
| 20260510031557 | 17 | 0 | 0.0 | 3.2 | 0.00 | 0.00 | 0.00 | 63 | 1009.7 |
| 20260510031100 | 17 | 288 | 0.0 | 3.2 | 0.00 | 0.00 | 0.00 | 63 | 1009.7 |
| 20260510030600 | 17 | 0 | 0.0 | 3.2 | 0.00 | 0.00 | 0.00 | 62 | 1009.8 |
| 20260510030112 | 17 | 288 | 0.0 | 4.8 | 0.00 | 0.00 | 0.00 | 62 | 1009.8 |
| 20260510025600 | 17 | 338 | 0.0 | 4.8 | 0.00 | 0.00 | 0.00 | 62 | 1009.8 |
| 20260510025059 | 17 | 283 | 1.6 | 3.2 | 0.00 | 0.00 | 0.00 | 63 | 1009.8 |
| 20260510024559 | 17 | 335 | 1.6 | 3.2 | 0.00 | 0.00 | 0.00 | 63 | 1009.7 |
| 20260510024104 | 17 | 19 | 1.6 | 4.8 | 0.00 | 0.00 | 0.00 | 63 | 1009.7 |
| 20260510023600 | 17 | 0 | 1.6 | 4.8 | 0.00 | 0.00 | 0.00 | 62 | 1009.7 |
| 20260510023100 | 17 | 346 | 1.6 | 4.8 | 0.00 | 0.00 | 0.00 | 62 | 1009.7 |
| 20260510022600 | 17 | 351 | 1.6 | 3.2 | 0.00 | 0.00 | 0.00 | 61 | 1009.6 |
| 20260510022100 | 17 | 0 | 0.0 | 1.6 | 0.00 | 0.00 | 0.00 | 61 | 1009.6 |
| 20260510021559 | 17 | 0 | 0.0 | 1.6 | 0.00 | 0.00 | 0.00 | 60 | 1009.5 |
| 20260510021059 | 17 | 0 | 0.0 | 1.6 | 0.00 | 0.00 | 0.00 | 60 | 1009.5 |
| 20260510020600 | 17 | 0 | 0.0 | 1.6 | 0.00 | 0.00 | 0.00 | 60 | 1009.4 |
| 20260510020058 | 17 | 0 | 0.0 | 1.6 | 0.00 | 0.00 | 0.00 | 60 | 1009.4 |
| 20260510015557 | 17 | 0 | 0.0 | 3.2 | 0.00 | 0.00 | 0.00 | 60 | 1009.3 |
| 20260510015056 | 17 | 0 | 0.0 | 3.2 | 0.00 | 0.00 | 0.00 | 60 | 1009.2 |
| 20260510014605 | 17 | 350 | 0.0 | 3.2 | 0.00 | 0.00 | 0.00 | 60 | 1009.2 |
| 20260510014101 | 17 | 0 | 0.0 | 1.6 | 0.00 | 0.00 | 0.00 | 60 | 1009.2 |
| 20260510013601 | 17 | 0 | 0.0 | 0.0 | 0.00 | 0.00 | 0.00 | 60 | 1009.2 |
| 20260510013058 | 17 | 0 | 0.0 | 0.0 | 0.00 | 0.00 | 0.00 | 59 | 1009.1 |
| 20260510012603 | 17 | 0 | 0.0 | 0.0 | 0.00 | 0.00 | 0.00 | 59 | 1009.0 |
| 20260510012100 | 17 | 0 | 0.0 | 0.0 | 0.00 | 0.00 | 0.00 | 59 | 1008.9 |
| 20260510011558 | 17 | 0 | 0.0 | 0.0 | 0.00 | 0.00 | 0.00 | 59 | 1008.9 |
| 20260510011101 | 17 | 0 | 0.0 | 0.0 | 0.00 | 0.00 | 0.00 | 59 | 1008.7 |
| 20260510010602 | 18 | 0 | 0.0 | 0.0 | 0.00 | 0.00 | 0.00 | 58 | 1008.6 |
| 20260510010100 | 18 | 0 | 0.0 | 0.0 | 0.00 | 0.00 | 0.00 | 58 | 1008.6 |
| 20260510005600 | 18 | 0 | 0.0 | 0.0 | 0.00 | 0.00 | 0.00 | 58 | 1008.5 |
| 20260510005100 | 18 | 0 | 0.0 | 0.0 | 0.00 | 0.00 | 0.00 | 58 | 1008.5 |
| 20260510004600 | 18 | 0 | 0.0 | 0.0 | 0.00 | 0.00 | 0.00 | 58 | 1008.4 |
| 20260510004100 | 18 | 0 | 0.0 | 0.0 | 0.00 | 0.00 | 0.00 | 58 | 1008.3 |
| 20260510003600 | 18 | 0 | 0.0 | 0.0 | 0.00 | 0.00 | 0.00 | 58 | 1008.4 |
| 20260510003104 | 18 | 0 | 0.0 | 0.0 | 0.00 | 0.00 | 0.00 | 59 | 1008.3 |
| 20260510002556 | 18 | 0 | 0.0 | 0.0 | 0.00 | 0.00 | 0.00 | 59 | 1008.3 |
| 20260510002057 | 18 | 0 | 0.0 | 0.0 | 0.00 | 0.00 | 0.00 | 60 | 1008.3 |
| 20260510001600 | 18 | 0 | 0.0 | 0.0 | 0.00 | 0.00 | 0.00 | 60 | 1008.3 |
| 20260510001057 | 18 | 0 | 0.0 | 1.6 | 0.00 | 0.00 | 0.00 | 59 | 1008.3 |
| 20260510000600 | 18 | 0 | 0.0 | 1.6 | 0.00 | 0.00 | 0.00 | 59 | 1008.3 |
| 20260509235600 | 18 | 0 | 0.0 | 1.6 | 0.00 | 0.00 | 0.00 | 61 | 1008.2 |
| 20260509235100 | 18 | 0 | 0.0 | 1.6 | 0.00 | 0.00 | 0.00 | 59 | 1008.3 |
| 20260509234601 | 18 | 0 | 0.0 | 3.2 | 0.00 | 0.00 | 0.00 | 59 | 1008.2 |
| 20260509234100 | 19 | 0 | 0.0 | 3.2 | 0.00 | 0.00 | 0.00 | 59 | 1008.2 |
| 20260509233559 | 19 | 142 | 1.6 | 3.2 | 0.00 | 0.00 | 0.00 | 60 | 1008.1 |
| 20260509233104 | 19 | 0 | 0.0 | 3.2 | 0.00 | 0.00 | 0.00 | 60 | 1008.1 |
| 20260509232600 | 19 | 184 | 0.0 | 1.6 | 0.00 | 0.00 | 0.00 | 57 | 1008.0 |
| 20260509232101 | 19 | 0 | 0.0 | 1.6 | 0.00 | 0.00 | 0.00 | 56 | 1007.9 |
| 20260509231601 | 20 | 0 | 0.0 | 3.2 | 0.00 | 0.00 | 0.00 | 56 | 1008.0 |
| 20260509231100 | 20 | 0 | 0.0 | 3.2 | 0.00 | 0.00 | 0.00 | 55 | 1008.0 |
| 20260509230604 | 20 | 0 | 0.0 | 3.2 | 0.00 | 0.00 | 0.00 | 55 | 1008.0 |
| 20260509225600 | 20 | 0 | 0.0 | 1.6 | 0.00 | 0.00 | 0.00 | 56 | 1008.0 |
| 20260509225056 | 20 | 0 | 0.0 | 3.2 | 0.00 | 0.00 | 0.00 | 61 | 1007.9 |
| 20260509224559 | 20 | 0 | 0.0 | 4.8 | 0.00 | 0.00 | 0.00 | 57 | 1008.0 |
| 20260509224102 | 20 | 0 | 0.0 | 4.8 | 0.00 | 0.00 | 0.00 | 55 | 1008.0 |
| 20260509223601 | 20 | 248 | 0.0 | 4.8 | 0.00 | 0.00 | 0.00 | 59 | 1008.0 |
| 20260509223102 | 20 | 0 | 0.0 | 6.4 | 0.00 | 0.00 | 0.00 | 60 | 1008.0 |
| 20260509222602 | 20 | 234 | 1.6 | 6.4 | 0.00 | 0.00 | 0.00 | 54 | 1008.0 |
| 20260509222101 | 20 | 0 | 0.0 | 4.8 | 0.00 | 0.00 | 0.00 | 59 | 1008.0 |
| 20260509221559 | 20 | 0 | 0.0 | 4.8 | 0.00 | 0.00 | 0.00 | 56 | 1008.0 |
| 20260509221101 | 20 | 263 | 0.0 | 4.8 | 0.00 | 0.00 | 0.00 | 54 | 1007.9 |
| 20260509220600 | 20 | 290 | 0.0 | 6.4 | 0.00 | 0.00 | 0.00 | 56 | 1008.0 |
| 20260509215600 | 21 | 215 | 0.0 | 12.9 | 0.00 | 0.00 | 0.00 | 50 | 1008.0 |
| 20260509215100 | 20 | 0 | 1.6 | 12.9 | 0.00 | 0.00 | 0.00 | 52 | 1008.0 |
| 20260509214558 | 21 | 229 | 1.6 | 12.9 | 0.00 | 0.00 | 0.00 | 53 | 1008.1 |
| 20260509214100 | 20 | 0 | 1.6 | 12.9 | 0.00 | 0.00 | 0.00 | 55 | 1008.1 |
| 20260509213600 | 20 | 249 | 1.6 | 11.3 | 0.00 | 0.00 | 0.00 | 53 | 1007.9 |
| 20260509213102 | 20 | 253 | 1.6 | 9.7 | 0.00 | 0.00 | 0.00 | 53 | 1008.0 |
| 20260509212557 | 21 | 257 | 1.6 | 12.9 | 0.00 | 0.00 | 0.00 | 51 | 1008.0 |
| 20260509212100 | 21 | 322 | 3.2 | 12.9 | 0.00 | 0.00 | 0.00 | 49 | 1007.8 |
| 20260509211606 | 21 | 49 | 3.2 | 9.7 | 0.00 | 0.00 | 0.00 | 53 | 1007.8 |
| 20260509211100 | 21 | 178 | 0.0 | 6.4 | 0.00 | 0.00 | 0.00 | 55 | 1007.7 |
| 20260509210602 | 21 | 71 | 1.6 | 11.3 | 0.00 | 0.00 | 0.00 | 53 | 1007.7 |
| 20260509205603 | 20 | 30 | 1.6 | 12.9 | 0.00 | 0.00 | 0.00 | 54 | 1007.8 |
| 20260509205100 | 20 | 0 | 1.6 | 12.9 | 0.00 | 0.00 | 0.00 | 55 | 1007.7 |
| 20260509204559 | 20 | 281 | 1.6 | 8.0 | 0.00 | 0.00 | 0.00 | 58 | 1007.7 |
| 20260509204100 | 20 | 106 | 1.6 | 8.0 | 0.00 | 0.00 | 0.00 | 55 | 1007.6 |
| 20260509203559 | 21 | 0 | 3.2 | 8.0 | 0.00 | 0.00 | 0.00 | 53 | 1007.7 |
| 20260509203111 | 22 | 217 | 1.6 | 8.0 | 0.00 | 0.00 | 0.00 | 56 | 1007.7 |
| 20260509202600 | 21 | 311 | 1.6 | 9.7 | 0.00 | 0.00 | 0.00 | 52 | 1007.7 |
| 20260509202103 | 21 | 17 | 3.2 | 9.7 | 0.00 | 0.00 | 0.00 | 53 | 1007.6 |
| 20260509201605 | 21 | 212 | 3.2 | 12.9 | 0.00 | 0.00 | 0.00 | 55 | 1007.6 |
| 20260509201059 | 21 | 175 | 1.6 | 12.9 | 0.00 | 0.00 | 0.00 | 55 | 1007.6 |
| 20260509200559 | 20 | 140 | 3.2 | 12.9 | 0.00 | 0.00 | 0.00 | 55 | 1007.6 |
| 20260509200111 | 20 | 145 | 3.2 | 12.9 | 0.00 | 0.00 | 0.00 | 57 | 1007.8 |
| 20260509195557 | 20 | 32 | 4.8 | 17.7 | 0.00 | 0.00 | 0.00 | 56 | 1007.8 |
| 20260509195100 | 20 | 165 | 6.4 | 17.7 | 0.00 | 0.00 | 0.00 | 56 | 1007.8 |
| 20260509194601 | 20 | 136 | 4.8 | 14.5 | 0.00 | 0.00 | 0.00 | 61 | 1007.9 |
| 20260509194056 | 20 | 139 | 6.4 | 14.5 | 0.00 | 0.00 | 0.00 | 60 | 1007.9 |
| 20260509193600 | 20 | 183 | 3.2 | 12.9 | 0.00 | 0.00 | 0.00 | 59 | 1008.1 |
| 20260509193116 | 19 | 126 | 3.2 | 11.3 | 0.00 | 0.00 | 0.00 | 64 | 1008.1 |
| 20260509192605 | 18 | 151 | 4.8 | 14.5 | 0.00 | 0.00 | 0.00 | 63 | 1008.3 |
| 20260509192100 | 18 | 215 | 4.8 | 17.7 | 0.00 | 0.00 | 0.00 | 62 | 1008.3 |
| 20260509191600 | 18 | 201 | 4.8 | 17.7 | 0.00 | 0.00 | 0.00 | 61 | 1008.4 |
| 20260509191103 | 18 | 111 | 3.2 | 12.9 | 0.00 | 0.00 | 0.00 | 63 | 1008.6 |
| 20260509190601 | 18 | 113 | 6.4 | 12.9 | 0.00 | 0.00 | 0.00 | 60 | 1008.5 |
| 20260509190106 | 20 | 27 | 4.8 | 12.9 | 0.00 | 0.00 | 0.00 | 61 | 1008.5 |
| 20260509185557 | 19 | 120 | 4.8 | 12.9 | 0.00 | 0.00 | 0.00 | 59 | 1008.7 |
| 20260509185100 | 19 | 153 | 1.6 | 9.7 | 0.00 | 0.00 | 0.00 | 65 | 1008.8 |
| 20260509184609 | 18 | 183 | 1.6 | 12.9 | 0.00 | 0.00 | 0.00 | 64 | 1008.9 |
| 20260509184100 | 18 | 153 | 3.2 | 14.5 | 0.00 | 0.00 | 0.00 | 64 | 1009.0 |
| 20260509183600 | 18 | 128 | 4.8 | 14.5 | 0.00 | 0.00 | 0.00 | 64 | 1008.9 |
| 20260509183058 | 18 | 153 | 3.2 | 8.0 | 0.00 | 0.00 | 0.00 | 63 | 1008.9 |
| 20260509182601 | 18 | 153 | 3.2 | 8.0 | 0.00 | 0.00 | 0.00 | 62 | 1008.9 |
| 20260509182100 | 18 | 142 | 1.6 | 6.4 | 0.00 | 0.00 | 0.00 | 64 | 1008.8 |
| 20260509181600 | 17 | 0 | 1.6 | 4.8 | 0.00 | 0.00 | 0.00 | 65 | 1008.7 |
| 20260509181100 | 18 | 119 | 1.6 | 14.5 | 0.00 | 0.00 | 0.00 | 66 | 1009.0 |
| 20260509180600 | 17 | 0 | 1.6 | 14.5 | 0.00 | 0.00 | 0.00 | 66 | 1009.1 |
| 20260509180059 | 17 | 169 | 3.2 | 11.3 | 0.00 | 0.00 | 0.00 | 65 | 1009.3 |
| 20260509175601 | 17 | 352 | 0.0 | 6.4 | 0.00 | 0.00 | 0.00 | 63 | 1009.4 |
| 20260509175100 | 17 | 149 | 3.2 | 6.4 | 0.00 | 0.00 | 0.00 | 62 | 1009.4 |
| 20260509174603 | 17 | 217 | 1.6 | 8.0 | 0.00 | 0.00 | 0.00 | 63 | 1009.6 |
| 20260509174100 | 17 | 141 | 1.6 | 8.0 | 0.00 | 0.00 | 0.00 | 63 | 1009.8 |
| 20260509173600 | 17 | 199 | 1.6 | 11.3 | 0.00 | 0.00 | 0.00 | 62 | 1009.9 |
| 20260509173109 | 17 | 148 | 1.6 | 11.3 | 0.00 | 0.00 | 0.00 | 61 | 1009.9 |
| 20260509172600 | 18 | 250 | 6.4 | 11.3 | 0.00 | 0.00 | 0.00 | 60 | 1009.9 |
| 20260509172057 | 18 | 258 | 0.0 | 9.7 | 0.00 | 0.00 | 0.00 | 61 | 1009.9 |
| 20260509171623 | 18 | 134 | 1.6 | 12.9 | 0.00 | 0.00 | 0.00 | 63 | 1009.9 |
| 20260509171100 | 18 | 165 | 3.2 | 12.9 | 0.00 | 0.00 | 0.00 | 60 | 1009.8 |
| 20260509170600 | 18 | 135 | 3.2 | 11.3 | 0.00 | 0.00 | 0.00 | 59 | 1009.8 |
| 20260509170101 | 18 | 0 | 1.6 | 11.3 | 0.00 | 0.00 | 0.00 | 64 | 1009.9 |
| 20260509165600 | 17 | 64 | 1.6 | 11.3 | 0.00 | 0.00 | 0.00 | 62 | 1009.9 |
| 20260509165100 | 17 | 159 | 3.2 | 11.3 | 0.00 | 0.00 | 0.00 | 63 | 1009.9 |
| 20260509164600 | 17 | 175 | 4.8 | 11.3 | 0.00 | 0.00 | 0.00 | 62 | 1009.9 |
| 20260509164057 | 17 | 80 | 1.6 | 8.0 | 0.00 | 0.00 | 0.00 | 61 | 1009.9 |
| 20260509163557 | 17 | 131 | 3.2 | 8.0 | 0.00 | 0.00 | 0.00 | 64 | 1010.0 |
| 20260509163108 | 17 | 111 | 3.2 | 12.9 | 0.00 | 0.00 | 0.00 | 67 | 1010.1 |
| 20260509162557 | 17 | 82 | 3.2 | 14.5 | 0.00 | 0.00 | 0.00 | 64 | 1010.1 |
| 20260509162057 | 17 | 82 | 3.2 | 14.5 | 0.00 | 0.00 | 0.00 | 63 | 1010.1 |
| 20260509161559 | 17 | 115 | 3.2 | 14.5 | 0.00 | 0.00 | 0.00 | 62 | 1010.1 |
| 20260509161100 | 17 | 145 | 0.0 | 11.3 | 0.00 | 0.00 | 0.00 | 60 | 1010.1 |
| 20260509160600 | 17 | 95 | 3.2 | 11.3 | 0.00 | 0.00 | 0.00 | 63 | 1010.1 |
| 20260509160100 | 16 | 0 | 4.8 | 12.9 | 0.00 | 0.00 | 0.00 | 61 | 1010.1 |
| 20260509155604 | 16 | 100 | 3.2 | 14.5 | 0.00 | 0.00 | 0.00 | 63 | 1010.2 |
| 20260509155100 | 17 | 98 | 4.8 | 14.5 | 0.00 | 0.00 | 0.00 | 61 | 1010.2 |
| 20260509154605 | 17 | 152 | 3.2 | 14.5 | 0.00 | 0.00 | 0.00 | 65 | 1010.1 |
| 20260509154059 | 16 | 169 | 4.8 | 9.7 | 0.00 | 0.00 | 0.00 | 61 | 1010.1 |
| 20260509153601 | 16 | 107 | 3.2 | 11.3 | 0.00 | 0.00 | 0.00 | 62 | 1010.2 |
| 20260509153059 | 16 | 147 | 3.2 | 11.3 | 0.00 | 0.00 | 0.00 | 64 | 1010.2 |
| 20260509152600 | 16 | 149 | 3.2 | 11.3 | 0.00 | 0.00 | 0.00 | 62 | 1010.2 |
| 20260509152059 | 16 | 144 | 1.6 | 11.3 | 0.00 | 0.00 | 0.00 | 62 | 1010.2 |
| 20260509151604 | 16 | 86 | 1.6 | 11.3 | 0.00 | 0.00 | 0.00 | 62 | 1010.3 |
| 20260509151059 | 16 | 83 | 4.8 | 11.3 | 0.00 | 0.00 | 0.00 | 65 | 1010.2 |
| 20260509150559 | 16 | 168 | 3.2 | 9.7 | 0.00 | 0.00 | 0.00 | 60 | 1010.3 |
| 20260509150125 | 16 | 150 | 1.6 | 11.3 | 0.00 | 0.00 | 0.00 | 62 | 1010.2 |
| 20260509145600 | 16 | 119 | 4.8 | 11.3 | 0.00 | 0.00 | 0.00 | 63 | 1010.2 |
| 20260509145101 | 16 | 169 | 3.2 | 11.3 | 0.00 | 0.00 | 0.00 | 61 | 1010.3 |
| 20260509144708 | 16 | 205 | 3.2 | 11.3 | 0.00 | 0.00 | 0.00 | 63 | 1010.3 |
| 20260509144100 | 16 | 70 | 3.2 | 9.7 | 0.00 | 0.00 | 0.00 | 63 | 1010.3 |
| 20260509143559 | 15 | 28 | 1.6 | 9.7 | 0.00 | 0.00 | 0.00 | 62 | 1010.3 |
| 20260509143059 | 15 | 163 | 1.6 | 9.7 | 0.00 | 0.00 | 0.00 | 65 | 1010.4 |
| 20260509142604 | 14 | 274 | 1.6 | 9.7 | 0.00 | 0.00 | 0.00 | 64 | 1010.5 |
| 20260509142100 | 14 | 152 | 3.2 | 14.5 | 0.00 | 0.00 | 0.00 | 63 | 1010.5 |
| 20260509141558 | 14 | 0 | 3.2 | 14.5 | 0.00 | 0.00 | 0.00 | 66 | 1010.6 |
| 20260509141100 | 14 | 153 | 3.2 | 11.3 | 0.00 | 0.00 | 0.00 | 66 | 1010.7 |
| 20260509140559 | 14 | 190 | 3.2 | 11.3 | 0.00 | 0.00 | 0.00 | 67 | 1010.8 |
| 20260509140101 | 14 | 355 | 3.2 | 9.7 | 0.00 | 0.00 | 0.00 | 67 | 1010.7 |
| 20260509135600 | 13 | 205 | 3.2 | 14.5 | 0.00 | 0.00 | 0.00 | 68 | 1010.7 |
| 20260509135101 | 12 | 158 | 4.8 | 14.5 | 0.00 | 0.00 | 0.00 | 67 | 1010.7 |
| 20260509134558 | 12 | 98 | 3.2 | 11.3 | 0.00 | 0.00 | 0.00 | 68 | 1010.6 |
| 20260509134059 | 12 | 186 | 4.8 | 9.7 | 0.00 | 0.00 | 0.00 | 67 | 1010.6 |
| 20260509133604 | 12 | 148 | 0.0 | 8.0 | 0.00 | 0.00 | 0.00 | 72 | 1010.5 |
| 20260509133059 | 12 | 136 | 0.0 | 8.0 | 0.00 | 0.00 | 0.00 | 71 | 1010.4 |
| 20260509132557 | 11 | 0 | 1.6 | 8.0 | 0.00 | 0.00 | 0.00 | 68 | 1010.5 |
| 20260509132059 | 11 | 0 | 1.6 | 6.4 | 0.00 | 0.00 | 0.00 | 69 | 1010.5 |
| 20260509131603 | 11 | 208 | 1.6 | 6.4 | 0.00 | 0.00 | 0.00 | 69 | 1010.6 |
| 20260509131100 | 11 | 271 | 1.6 | 4.8 | 0.00 | 0.00 | 0.00 | 68 | 1010.8 |
| 20260509130600 | 11 | 270 | 0.0 | 4.8 | 0.00 | 0.00 | 0.00 | 69 | 1010.7 |
| 20260509130106 | 11 | 355 | 0.0 | 4.8 | 0.00 | 0.00 | 0.00 | 68 | 1010.7 |
| 20260509125600 | 11 | 0 | 0.0 | 12.9 | 0.00 | 0.00 | 0.00 | 72 | 1010.6 |
| 20260509125101 | 11 | 0 | 1.6 | 12.9 | 0.00 | 0.00 | 0.00 | 70 | 1010.6 |
| 20260509124612 | 11 | 163 | 3.2 | 11.3 | 0.00 | 0.00 | 0.00 | 71 | 1010.4 |
| 20260509124100 | 11 | 119 | 3.2 | 11.3 | 0.00 | 0.00 | 0.00 | 70 | 1010.4 |
| 20260509123600 | 11 | 205 | 1.6 | 9.7 | 0.00 | 0.00 | 0.00 | 69 | 1010.5 |
| 20260509123104 | 11 | 245 | 3.2 | 9.7 | 0.00 | 0.00 | 0.00 | 70 | 1010.5 |
| 20260509122600 | 11 | 40 | 3.2 | 12.9 | 0.00 | 0.00 | 0.00 | 71 | 1010.5 |
| 20260509122059 | 11 | 148 | 1.6 | 12.9 | 0.00 | 0.00 | 0.00 | 70 | 1010.5 |
| 20260509121557 | 11 | 211 | 1.6 | 9.7 | 0.00 | 0.00 | 0.00 | 68 | 1010.4 |
| 20260509121100 | 11 | 168 | 1.6 | 9.7 | 0.00 | 0.00 | 0.00 | 69 | 1010.5 |
| 20260509120601 | 11 | 161 | 1.6 | 9.7 | 0.00 | 0.00 | 0.00 | 68 | 1010.5 |
| 20260509120107 | 11 | 157 | 1.6 | 9.7 | 0.00 | 0.00 | 0.00 | 67 | 1010.5 |
| 20260509115600 | 11 | 186 | 1.6 | 9.7 | 0.00 | 0.00 | 0.00 | 68 | 1010.4 |
| 20260509115100 | 11 | 198 | 3.2 | 9.7 | 0.00 | 0.00 | 0.00 | 67 | 1010.4 |
| 20260509114606 | 11 | 0 | 1.6 | 8.0 | 0.00 | 0.00 | 0.00 | 69 | 1010.4 |
| 20260509114100 | 11 | 0 | 3.2 | 8.0 | 0.00 | 0.00 | 0.00 | 68 | 1010.3 |
| 20260509113600 | 11 | 196 | 1.6 | 8.0 | 0.00 | 0.00 | 0.00 | 66 | 1010.4 |
| 20260509113059 | 11 | 222 | 3.2 | 8.0 | 0.00 | 0.00 | 0.00 | 65 | 1010.4 |
| 20260509112602 | 11 | 200 | 1.6 | 8.0 | 0.00 | 0.00 | 0.00 | 65 | 1010.3 |
| 20260509112103 | 11 | 158 | 1.6 | 8.0 | 0.00 | 0.00 | 0.00 | 65 | 1010.2 |
| 20260509111558 | 11 | 183 | 1.6 | 11.3 | 0.00 | 0.00 | 0.00 | 62 | 1010.2 |
| 20260509111100 | 12 | 135 | 3.2 | 14.5 | 0.00 | 0.00 | 0.00 | 59 | 1010.1 |
| 20260509110601 | 12 | 115 | 3.2 | 16.1 | 0.00 | 0.00 | 0.00 | 57 | 1009.9 |
| 20260509110059 | 13 | 250 | 4.8 | 17.7 | 0.00 | 0.00 | 0.00 | 56 | 1009.9 |
| 20260509105559 | 13 | 257 | 6.4 | 19.3 | 0.00 | 0.00 | 0.00 | 55 | 1009.8 |
| 20260509105057 | 13 | 229 | 4.8 | 27.4 | 0.00 | 0.00 | 0.00 | 56 | 1009.8 |
| 20260509104600 | 13 | 285 | 4.8 | 27.4 | 0.00 | 0.00 | 0.00 | 56 | 1009.8 |
| 20260509104059 | 12 | 207 | 3.2 | 12.9 | 0.00 | 0.00 | 0.00 | 56 | 1009.8 |
| 20260509103556 | 12 | 259 | 4.8 | 19.3 | 0.00 | 0.00 | 0.00 | 57 | 1009.9 |
| 20260509103057 | 12 | 214 | 4.8 | 20.9 | 0.00 | 0.00 | 0.00 | 58 | 1009.9 |
| 20260509102600 | 12 | 290 | 6.4 | 20.9 | 0.00 | 0.00 | 0.00 | 58 | 1009.9 |
| 20260509102102 | 12 | 284 | 4.8 | 16.1 | 0.00 | 0.00 | 0.00 | 58 | 1009.8 |
| 20260509101559 | 12 | 246 | 4.8 | 16.1 | 0.00 | 0.00 | 0.00 | 59 | 1009.7 |
| 20260509101102 | 12 | 331 | 3.2 | 11.3 | 0.00 | 0.00 | 0.00 | 59 | 1009.8 |
| 20260509100600 | 12 | 260 | 3.2 | 12.9 | 0.00 | 0.00 | 0.00 | 60 | 1009.8 |
| 20260509100105 | 11 | 20 | 3.2 | 12.9 | 0.00 | 0.00 | 0.00 | 61 | 1009.8 |
| 20260509095601 | 11 | 215 | 4.8 | 11.3 | 0.00 | 0.00 | 0.00 | 61 | 1009.9 |
| 20260509095101 | 11 | 256 | 1.6 | 11.3 | 0.00 | 0.00 | 0.00 | 61 | 1009.9 |
| 20260509094558 | 11 | 308 | 1.6 | 12.9 | 0.00 | 0.00 | 0.00 | 62 | 1010.0 |
| 20260509094100 | 11 | 254 | 4.8 | 12.9 | 0.00 | 0.00 | 0.00 | 62 | 1010.0 |
| 20260509093600 | 11 | 224 | 4.8 | 12.9 | 0.00 | 0.00 | 0.00 | 62 | 1009.9 |
| 20260509093058 | 11 | 244 | 3.2 | 9.7 | 0.00 | 0.00 | 0.00 | 62 | 1010.0 |
| 20260509092611 | 11 | 323 | 1.6 | 9.7 | 0.00 | 0.00 | 0.00 | 63 | 1010.1 |
| 20260509092059 | 11 | 0 | 1.6 | 6.4 | 0.00 | 0.00 | 0.00 | 63 | 1010.2 |
| 20260509091600 | 11 | 205 | 1.6 | 12.9 | 0.00 | 0.00 | 0.00 | 63 | 1010.3 |
| 20260509091102 | 11 | 199 | 1.6 | 12.9 | 0.00 | 0.00 | 0.00 | 61 | 1010.3 |
| 20260509090600 | 11 | 134 | 1.6 | 8.0 | 0.00 | 0.00 | 0.00 | 61 | 1010.4 |
| 20260509090108 | 11 | 162 | 3.2 | 14.5 | 0.00 | 0.00 | 0.00 | 61 | 1010.4 |
| 20260509085600 | 11 | 262 | 4.8 | 14.5 | 0.00 | 0.00 | 0.00 | 61 | 1010.4 |
| 20260509085101 | 11 | 285 | 1.6 | 12.9 | 0.00 | 0.00 | 0.00 | 61 | 1010.5 |
| 20260509084603 | 11 | 177 | 3.2 | 12.9 | 0.00 | 0.00 | 0.00 | 61 | 1010.5 |
| 20260509084100 | 11 | 263 | 1.6 | 11.3 | 0.00 | 0.00 | 0.00 | 61 | 1010.4 |
| 20260509083600 | 11 | 246 | 3.2 | 11.3 | 0.00 | 0.00 | 0.00 | 62 | 1010.5 |
| 20260509083057 | 11 | 277 | 1.6 | 11.3 | 0.00 | 0.00 | 0.00 | 60 | 1010.5 |
| 20260509082556 | 11 | 201 | 1.6 | 9.7 | 0.00 | 0.00 | 0.00 | 62 | 1010.7 |
| 20260509082100 | 11 | 159 | 3.2 | 9.7 | 0.00 | 0.00 | 0.00 | 60 | 1010.6 |
| 20260509081558 | 11 | 0 | 1.6 | 9.7 | 0.00 | 0.00 | 0.00 | 61 | 1010.6 |
| 20260509081059 | 11 | 0 | 3.2 | 11.3 | 0.00 | 0.00 | 0.00 | 61 | 1010.6 |
| 20260509080604 | 11 | 200 | 4.8 | 12.9 | 0.00 | 0.00 | 0.00 | 60 | 1010.7 |
| 20260509075600 | 12 | 0 | 4.8 | 16.1 | 0.00 | 0.00 | 0.00 | 57 | 1010.7 |
| 20260509075100 | 12 | 197 | 3.2 | 14.5 | 0.00 | 0.00 | 0.00 | 54 | 1010.7 |
| 20260509074601 | 12 | 188 | 3.2 | 17.7 | 0.00 | 0.00 | 0.00 | 54 | 1010.7 |
| 20260509074100 | 13 | 234 | 4.8 | 20.9 | 0.00 | 0.00 | 0.00 | 54 | 1010.7 |
| 20260509073601 | 13 | 239 | 6.4 | 20.9 | 0.00 | 0.00 | 0.00 | 54 | 1010.6 |
| 20260509073100 | 12 | 264 | 4.8 | 17.7 | 0.00 | 0.00 | 0.00 | 54 | 1010.5 |
| 20260509072600 | 12 | 240 | 6.4 | 19.3 | 0.00 | 0.00 | 0.00 | 54 | 1010.6 |
| 20260509072057 | 12 | 220 | 4.8 | 19.3 | 0.00 | 0.00 | 0.00 | 55 | 1010.6 |
| 20260509071613 | 12 | 202 | 3.2 | 14.5 | 0.00 | 0.00 | 0.00 | 56 | 1010.6 |
| 20260509071102 | 12 | 191 | 4.8 | 14.5 | 0.00 | 0.00 | 0.00 | 56 | 1010.7 |
| 20260509070600 | 12 | 207 | 4.8 | 17.7 | 0.00 | 0.00 | 0.00 | 57 | 1010.5 |
| 20260509070101 | 12 | 344 | 3.2 | 17.7 | 0.00 | 0.00 | 0.00 | 56 | 1010.6 |
| 20260509065600 | 12 | 169 | 4.8 | 16.1 | 0.00 | 0.00 | 0.00 | 55 | 1010.7 |
| 20260509065104 | 12 | 212 | 4.8 | 11.3 | 0.00 | 0.00 | 0.00 | 55 | 1010.7 |
| 20260509064605 | 12 | 159 | 3.2 | 12.9 | 0.00 | 0.00 | 0.00 | 55 | 1010.7 |
| 20260509064100 | 12 | 213 | 4.8 | 16.1 | 0.00 | 0.00 | 0.00 | 55 | 1010.7 |
| 20260509063601 | 12 | 145 | 4.8 | 16.1 | 0.00 | 0.00 | 0.00 | 55 | 1010.7 |
| 20260509063100 | 12 | 277 | 3.2 | 12.9 | 0.00 | 0.00 | 0.00 | 56 | 1010.9 |
| 20260509062600 | 12 | 147 | 3.2 | 14.5 | 0.00 | 0.00 | 0.00 | 55 | 1010.8 |
| 20260509062101 | 12 | 0 | 3.2 | 14.5 | 0.00 | 0.00 | 0.00 | 55 | 1010.8 |
| 20260509061602 | 12 | 125 | 3.2 | 11.3 | 0.00 | 0.00 | 0.00 | 55 | 1010.8 |